[[{"header":{"parameterUnit":"m.s-1","parameterCategory":1,"la1":30.2991,"la2":30.254,"lo1":-89.0895,"lo2":-89.0444,"dy":0.0017,"dx":0.0017,"nx":28,"ny":28,"refTime":"2024-08-02T03:00:00:Z","depth":0,"parameterNumber":2,"parameterNumberName":"U-component_of_WINDS"},"data":[0,0,0,0,0,0,0,0,0,0,0,0,0,0,0,0,0,0,0,0,0,0,0,0,0,0,0,0,0,0,0,0,0,0,0,0,0,0,0,0,0,0,0,0,0,0,0,0,0,0,0,0,0,0,0,0,0,0,2.8229,2.823,0,2.8293,2.8294,2.8295,2.8262,2.8261,2.8259,2.8257,2.8321,2.8325,2.8328,0,0,0,0,0,0,0,0,0,0,0,0,0,2.8077,2.808,2.8229,2.823,2.8231,2.8293,2.8294,2.8295,2.8263,2.8261,2.8259,2.8257,2.832,2.8324,2.8328,0,0,0,0,0,0,0,0,0,0,0,0,0,2.8142,2.8081,2.8229,2.8222,2.8222,2.8293,2.8294,2.8295,2.8263,2.8261,2.8258,2.8256,2.8319,2.8324,2.8329,2.8409,0,0,2.8344,2.8346,0,0,0,0,0,0,0,0,2.8139,2.8148,2.8222,2.8223,2.8223,2.8267,2.8264,2.8333,2.8264,2.8248,2.8257,2.8254,2.8305,2.8311,2.8329,2.8412,2.8415,2.8344,2.8347,2.8349,2.8351,0,0,0,0,0,0,0,2.8134,2.8145,2.8254,2.8224,2.8224,2.8215,2.8222,2.8277,2.829,2.8249,2.8247,2.8255,2.8305,2.8324,2.833,2.8416,2.8344,2.8348,2.8351,2.8353,2.8566,2.8569,0,0,0,0,0,0,2.813,2.8141,2.8252,2.8256,2.8174,2.822,2.8227,2.8256,2.8289,2.8292,2.8257,2.8253,2.8317,2.8324,2.8332,2.8426,2.8349,2.8354,2.8356,2.8563,2.8567,2.857,0,0,0,0,0,0,2.8127,2.814,2.825,2.8198,2.8212,2.8225,2.8257,2.8258,2.8277,2.8295,2.8297,2.8274,2.8315,2.8325,2.839,2.8428,2.8356,2.836,2.856,2.8564,2.8568,2.8617,0,0,0,0,0,0,2.8123,2.8139,2.8171,2.8199,2.8214,2.8307,2.826,2.8261,2.8286,2.8281,2.8312,2.8314,2.8314,2.8383,2.8395,2.8434,2.8364,2.8557,2.8562,2.8567,2.8612,2.8622,2.8631,0,0,0,0,0,2.8117,2.8182,2.8172,2.8186,2.8254,2.8309,2.8318,2.8317,2.8289,2.832,2.8331,2.8313,2.8423,2.839,2.8403,2.8444,2.8554,2.8561,2.8567,2.8607,2.862,2.8631,0,0,0,0,0,0,2.8157,2.8185,2.8175,2.8251,2.8278,2.8304,2.8343,2.833,2.8365,2.836,2.8357,2.8364,2.843,2.8444,2.8407,2.8522,2.8484,2.8493,2.8511,2.8523,2.8532,2.8526,2.8368,0,0,0,0,0,2.8174,2.8218,2.824,2.8305,2.8319,2.8329,2.8353,2.835,2.8377,2.8389,2.8405,2.8432,2.8472,2.8499,2.8537,2.8615,2.8619,2.8649,2.8659,2.8666,2.8673,2.8713,2.8726,2.859,2.859,2.859,0,0,2.8211,2.8232,2.8259,2.8313,2.8334,2.8378,2.8338,2.8387,2.8419,2.8396,2.8457,2.847,2.85,2.8571,2.8603,2.8584,2.8713,2.8674,2.868,2.8683,2.8721,2.8734,2.8745,2.8594,2.8593,2.8593,0,0,2.8299,2.832,2.8375,2.8397,2.8429,2.8435,2.8448,2.8476,2.8484,2.8546,2.8528,2.8567,2.8637,2.8658,2.8678,2.8775,2.8758,2.8788,2.8836,2.8875,2.8886,2.8895,2.8927,2.8939,2.8795,2.8795,2.8795,0,2.8339,2.8405,2.8405,2.8454,2.8478,2.846,2.8514,2.8535,2.8578,2.8594,2.8573,2.866,2.8679,2.8753,2.8777,2.8795,2.8808,2.8783,2.8885,2.8894,2.8903,2.8933,2.8945,2.8798,2.8798,2.8798,2.8797,0,2.8453,2.8499,2.854,2.8581,2.861,2.8662,2.8668,2.8697,2.8692,2.87,2.8762,2.8785,2.8826,2.8844,2.884,2.8918,2.8905,2.8885,2.8845,2.8919,2.8947,2.8959,2.8803,2.8802,2.8801,2.88,0,0,2.8565,2.8606,2.8621,2.8639,2.8673,2.8708,2.876,2.8801,2.8824,2.8855,2.8896,2.8956,2.8937,2.8959,2.8957,2.8992,2.9064,2.8967,2.8967,2.8982,2.9149,2.9162,2.9176,2.9055,2.9057,2.9059,2.9146,0,2.8654,2.8743,2.8744,2.8826,2.8867,2.8851,2.8895,2.892,2.8929,2.8965,2.8976,2.9017,2.899,2.9003,2.9037,2.9048,2.9097,2.9042,2.9091,2.9093,2.9081,2.9191,2.9205,2.9286,2.9157,2.9159,2.916,0,2.8768,2.8802,2.8888,2.8915,2.8933,2.8972,2.9009,2.9045,2.9073,2.9077,2.9103,2.9095,2.9146,2.9107,2.9176,2.9139,2.9159,2.9168,2.9171,2.9173,2.9129,2.9194,2.9312,2.9323,2.9178,2.9177,2.9176,0,2.8838,2.8906,2.8965,2.8982,2.9016,2.9044,2.9059,2.9085,2.9109,2.9141,2.9157,2.9195,2.9215,2.9245,2.9247,2.9219,2.9316,2.9278,2.9319,2.9318,2.9337,2.9336,2.9458,2.9355,2.9355,2.9355,2.9355,0,2.8935,2.8987,2.8997,2.9034,2.9092,2.9092,2.915,2.9162,2.9185,2.9223,2.9212,2.9248,2.925,2.9287,2.9289,2.9344,2.9354,2.9358,2.9357,2.9357,2.9356,2.9368,2.9362,2.9358,2.9358,2.9357,2.9356,0,2.9022,2.9031,2.9094,2.9121,2.9129,2.9171,2.9193,2.9227,2.9236,2.9284,2.9295,2.9308,2.935,2.9356,2.9406,2.9408,2.9473,2.9468,2.9463,2.9462,2.9501,2.9496,2.9633,2.965,2.9539,2.954,2.9541,0,2.9081,2.9121,2.9153,2.9178,2.9194,2.9235,2.9259,2.9262,2.9288,2.9323,2.9352,2.9394,2.9426,2.9494,2.9507,2.9545,2.9539,2.9584,2.9544,2.9542,2.9536,2.9533,2.9535,2.9591,2.9592,2.9593,2.9594,0,2.9186,2.9188,2.9224,2.9263,2.9293,2.9323,2.9351,2.9372,2.9378,2.9407,2.945,2.9476,2.9526,2.9566,2.9603,2.9618,2.9606,2.9607,2.9618,2.9617,2.9611,2.9612,2.9481,2.9603,2.9602,2.9602,2.9601,2.9601,2.9259,2.9293,2.932,2.9361,2.9382,2.9409,2.9442,2.9455,2.9491,2.9532,2.9532,2.9579,2.9605,2.9653,2.9671,2.9707,2.9692,2.9708,2.9712,2.9715,2.9717,2.9608,2.9714,2.9714,2.9713,2.9713,2.9713,0,2.936,2.9377,2.9414,2.9454,2.9486,2.9474,2.9505,2.9531,2.9573,2.9599,2.9631,2.968,2.9719,2.9736,2.9774,2.9799,2.9795,2.9809,2.9805,2.9808,2.973,2.9716,2.9811,2.9811,2.9811,2.9811,2.9811,2.9811,2.9416,2.9472,2.9478,2.9545,2.9561,2.9607,2.9625,2.9649,2.967,2.9725,2.9757,2.9768,2.979,2.983,2.9864,2.9868,2.9881,2.9897,2.9898,2.9824,2.9814,2.9805,2.9791,2.9901,2.9901,2.9973,2.9974,2.9974]},{"header":{"parameterUnit":"m.s-1","parameterCategory":1,"la1":30.2991,"la2":30.254,"lo1":-89.0895,"lo2":-89.0444,"dy":0.0017,"dx":0.0017,"nx":28,"ny":28,"refTime":"2024-08-02T03:00:00:Z","depth":0,"parameterNumber":3,"parameterNumberName":"V-component_of_WINDS"},"data":[0,0,0,0,0,0,0,0,0,0,0,0,0,0,0,0,0,0,0,0,0,0,0,0,0,0,0,0,0,0,0,0,0,0,0,0,0,0,0,0,0,0,0,0,0,0,0,0,0,0,0,0,0,0,0,0,0,0,3.1335,3.1336,0,3.1483,3.1485,3.1487,3.1491,3.1489,3.1487,3.1486,3.1634,3.164,3.1645,0,0,0,0,0,0,0,0,0,0,0,0,0,3.105,3.1055,3.1335,3.1336,3.1338,3.1483,3.1485,3.1487,3.1491,3.1489,3.1487,3.1485,3.1632,3.1639,3.1646,0,0,0,0,0,0,0,0,0,0,0,0,0,3.1183,3.1057,3.1334,3.1358,3.1362,3.1483,3.1485,3.1488,3.1492,3.1489,3.1486,3.1484,3.163,3.1638,3.1647,3.1753,0,0,3.1672,3.1676,0,0,0,0,0,0,0,0,3.1176,3.1194,3.1353,3.1357,3.1361,3.1466,3.1439,3.1576,3.1493,3.1442,3.1486,3.1483,3.158,3.1592,3.1626,3.176,3.1766,3.1673,3.1678,3.1682,3.1684,0,0,0,0,0,0,0,3.1166,3.1187,3.1393,3.1355,3.136,3.136,3.1376,3.1465,3.1524,3.1446,3.1447,3.1465,3.1582,3.1618,3.163,3.1768,3.1673,3.168,3.1686,3.1689,3.1994,3.1997,0,0,0,0,0,0,3.1153,3.118,3.1389,3.1398,3.126,3.1367,3.1385,3.1435,3.1523,3.1534,3.1467,3.1465,3.1605,3.162,3.1635,3.1764,3.1682,3.169,3.1695,3.1991,3.1995,3.1998,0,0,0,0,0,0,3.1147,3.1172,3.1383,3.1289,3.1316,3.1375,3.1431,3.1439,3.1476,3.1539,3.1549,3.1494,3.1603,3.1623,3.1723,3.1769,3.1694,3.1701,3.1987,3.1992,3.1996,3.2024,0,0,0,0,0,0,3.1139,3.1169,3.1212,3.129,3.1321,3.147,3.1434,3.1444,3.1491,3.1489,3.1567,3.1577,3.1603,3.1711,3.1732,3.178,3.1708,3.1983,3.1989,3.1995,3.2019,3.2029,3.2037,0,0,0,0,0,3.1129,3.1213,3.1214,3.1239,3.1375,3.1473,3.149,3.152,3.1494,3.1536,3.1577,3.1574,3.1761,3.1721,3.1745,3.1796,3.1981,3.1988,3.1994,3.2015,3.2027,3.2037,0,0,0,0,0,0,3.1138,3.1224,3.1226,3.1339,3.1398,3.1473,3.1528,3.1531,3.1599,3.1594,3.1626,3.1644,3.1743,3.1779,3.1733,3.1902,3.1867,3.1879,3.1875,3.1887,3.1896,3.1885,3.1715,0,0,0,0,0,3.1154,3.1227,3.1298,3.139,3.142,3.1469,3.1512,3.153,3.1592,3.1618,3.1665,3.1725,3.1797,3.1844,3.1913,3.2024,3.204,3.207,3.2079,3.2086,3.2097,3.2156,3.217,3.202,3.202,3.202,0,0,3.1186,3.1242,3.1287,3.1394,3.1442,3.1516,3.149,3.157,3.1625,3.1629,3.1727,3.1764,3.1832,3.1938,3.1987,3.1971,3.2141,3.2095,3.21,3.2107,3.2164,3.2178,3.2191,3.2025,3.2024,3.2023,0,0,3.1283,3.1333,3.1416,3.1465,3.1538,3.157,3.1589,3.1664,3.1689,3.1787,3.1792,3.1856,3.198,3.2028,3.2069,3.2181,3.2181,3.2203,3.225,3.2308,3.232,3.233,3.237,3.2383,3.2213,3.2213,3.2213,0,3.1314,3.1428,3.1457,3.1537,3.1583,3.1591,3.1673,3.1719,3.1811,3.1842,3.1823,3.1978,3.2024,3.214,3.2168,3.2201,3.2223,3.2195,3.2316,3.2327,3.2337,3.2375,3.239,3.2215,3.2215,3.2214,3.2214,0,3.1461,3.1539,3.1596,3.1686,3.1738,3.1819,3.1859,3.1908,3.192,3.1953,3.2052,3.2108,3.2188,3.2217,3.2229,3.2334,3.2322,3.2309,3.2275,3.2353,3.2389,3.2404,3.2218,3.2217,3.2216,3.2216,0,0,3.1571,3.1674,3.1695,3.1735,3.1816,3.1876,3.1956,3.2035,3.2076,3.2139,3.2206,3.2309,3.2297,3.2343,3.236,3.241,3.2495,3.2391,3.2393,3.2408,3.2613,3.2622,3.2639,3.2495,3.2497,3.25,3.2607,0,3.1676,3.182,3.1848,3.1973,3.2044,3.2051,3.212,3.2176,3.2208,3.2272,3.2306,3.2379,3.2358,3.2386,3.2436,3.2474,3.2536,3.2467,3.2556,3.2559,3.2539,3.2658,3.2669,3.2767,3.2621,3.2623,3.2625,0,3.182,3.1887,3.2018,3.2088,3.2119,3.2181,3.2255,3.2317,3.2379,3.2398,3.2449,3.246,3.2541,3.2502,3.2613,3.2565,3.2602,3.2626,3.2631,3.2641,3.2597,3.2671,3.2799,3.2814,3.2648,3.2646,3.2644,0,3.1886,3.2008,3.2103,3.2137,3.2221,3.2264,3.23,3.236,3.2406,3.247,3.2499,3.2571,3.2611,3.2665,3.2695,3.2664,3.2803,3.2767,3.282,3.2819,3.285,3.2848,3.2986,3.2873,3.2873,3.2873,3.2873,0,3.2002,3.2082,3.2134,3.2192,3.2281,3.2311,3.2397,3.2433,3.2486,3.2549,3.2559,3.2618,3.2653,3.2717,3.274,3.2827,3.2845,3.2862,3.2867,3.2861,3.2859,3.2887,3.2881,3.2877,3.2876,3.2875,3.2875,0,3.2091,3.2129,3.2233,3.2303,3.2322,3.2385,3.2444,3.25,3.2531,3.2611,3.2631,3.268,3.2755,3.2789,3.2881,3.2897,3.2996,3.2996,3.2976,3.2978,3.3029,3.3023,3.319,3.3213,3.3085,3.3086,3.3087,0,3.2163,3.2225,3.2302,3.2346,3.2384,3.2454,3.25,3.2531,3.2579,3.2653,3.2699,3.2775,3.2837,3.2956,3.2998,3.3068,3.307,3.3124,3.3081,3.3073,3.3071,3.3067,3.3073,3.3132,3.3133,3.3134,3.3135,0,3.2286,3.2301,3.2369,3.2442,3.2497,3.2556,3.2614,3.2649,3.2688,3.274,3.2818,3.2866,3.296,3.3034,3.3107,3.3142,3.3145,3.3148,3.3164,3.3159,3.3144,3.3152,3.2997,3.3144,3.3143,3.3143,3.3142,3.3142,3.2369,3.2424,3.2486,3.256,3.2607,3.266,3.2715,3.2753,3.2818,3.2898,3.2912,3.2994,3.3052,3.315,3.3187,3.3251,3.3238,3.3261,3.3267,3.3272,3.3275,3.3134,3.3264,3.3263,3.3263,3.3263,3.3263,0,3.2492,3.2532,3.26,3.2681,3.2738,3.2736,3.2799,3.2847,3.2919,3.2974,3.3035,3.3123,3.3194,3.3241,3.3313,3.3354,3.3357,3.3372,3.3369,3.3377,3.3283,3.3262,3.3368,3.3368,3.3368,3.3368,3.3368,3.3368,3.2563,3.2656,3.2678,3.2792,3.2831,3.2913,3.2949,3.2997,3.3041,3.3139,3.3199,3.3229,3.328,3.3355,3.342,3.3431,3.3457,3.3473,3.3484,3.3395,3.3384,3.3373,3.3354,3.3478,3.3478,3.3573,3.3574,3.3574]}]]